Location: Peebles
(55.6412°N, 3.1714°W)
Time: 14:42:07
(UTC+01:00)

Cosmos 1937 Rocket - Pass Details

Date: 26 September 2021
Orbit: 747 x 779 km, 74.0° (Epoch: 17 October)

Event Time Altitude Azimuth Distance (km) Brightness Sun altitude
Exits shadow 22:39:06 50° 21° (NNE) 958 4.0 -28.6°
Drops below altitude 10° 22:42:53 10° 27° (NNE) 2,278 6.2 -28.9°
Sets 22:45:15 0° 29° (NNE) 3,206 7.0 -29.2°
